Location: Estes Park
(40.3770°N, 105.5210°W)
Time: 10:53:44
(UTC-06:00)

Tiangong 2 - Pass Details

Date: 16 October 2017
Orbit: 388 x 392 km, 42.8° (Epoch: 18 October)

Event Time Altitude Azimuth Distance (km) Brightness Sun altitude
Exits shadow 05:45:26 48° 320° (NW) 513 1.4 -17.7°
Maximum altitude 05:46:01 60° 8° (N) 449 1.4 -17.6°
Drops below altitude 10° 05:49:11 10° 90° (E) 1,414 5.3 -17.0°
Sets 05:51:16 0° 94° (E) 2,269 6.7 -16.6°
